Regional Weather Roundup
Issued by NWS

Home | Current Version | Previous Version | Graphics & Text | Print | Product List | Glossary On
Versions: 1 2 3 4 5 6 7 8 9 10 11 12 13 14 15 16 17 18 19 20 21 22 23 24 25 26 27 28 29 30 31 32 33 34 35 36 37 38 39 40 41 42 43 44 45 46 47 48 49 50
000
ASUS43 KDMX 222306
RWRIA

WEATHER ROUNDUP FOR IOWA
NATIONAL WEATHER SERVICE DES MOINES IA
500 PM CST SUN JAN 22 2017

NOTE: "FAIR" INDICATES FEW OR NO CLOUDS BELOW 12,000 FEET WITH NO
SIGNIFICANT WEATHER AND/OR OBSTRUCTIONS TO VISIBILITY.

* - THESE STATIONS ARE NOT NWS STATIONS...THUS NOT UNDER NWS
QUALITY CONTROL.  THEY ALSO DO NOT REPORT WEATHER SUCH
AS PRECIPITATION OR FOG.

IAZ001>003-012>014-020>022-031>034-043>046-230000-
   NORTHWEST IOWA

CITY           SKY/WX    TMP DP  RH WIND       PRES   REMARKS
CARROLL *      CLOUDY    37  36  93 NW10      29.79R WCI  30
CHEROKEE *     CLOUDY    33  32  97 NW8       29.82R FOG     WCI  26
DENISON *      CLOUDY    36  34  93 NW6       29.79R WCI  31
LE MARS *      CLOUDY    32  30  93 NW12G20   29.84R WCI  23
ORANGE CITY *  CLOUDY    30  30 100 NW14      29.81R FOG     WCI  20
SHELDON *      CLOUDY    32  32 100 NW15      29.79R FOG     WCI  22
SIOUX CITY     CLEAR     36  31  82 NW10      29.83R WCI  28
SPENCER          N/A    N/A N/A N/A MISG      29.78R
STORM LAKE *   CLOUDY    36  34  93 NW12      29.79R WCI  27
$$

IAZ055>058-069>071-079>083-090>094-230000-
   SOUTHWEST IOWA

CITY           SKY/WX    TMP DP  RH WIND       PRES   REMARKS
ATLANTIC *     CLOUDY    37  36  93 NW12      29.80R WCI  30
AUDUBON *      LGT RAIN  36  34  93 NW7       29.80R WCI  30
CLARINDA *     CLOUDY    37  37 100 N13       29.83R WCI  29
COUNCIL BLFS * PTCLDY    37  36  93 NW9       29.82R WCI  31
CRESTON *      CLOUDY    36  36 100 NW13      29.78R WCI  27
HARLAN  *      CLOUDY    36  36 100 NW9       29.84R WCI  29
LAMONI         CLOUDY    37  35  92 NW14      29.75R WCI  28
RED OAK *      CLOUDY    37  36  93 N7        29.82R FOG     WCI  32
SHENANDOAH *   CLOUDY    37  34  87 VRB7G14   29.83R WCI  32
$$

IAZ047>049-059>061-072>074-084-230000-
   CENTRAL IOWA

CITY           SKY/WX    TMP DP  RH WIND       PRES   REMARKS
AMES           CLOUDY    38  37  97 NW12      29.76R WCI  30
ANKENY *       CLOUDY    37  36  93 NW10      29.77R WCI  30
BOONE *        CLOUDY    37  37 100 NW8       29.76R FOG     WCI  31
CHARITON *     CLOUDY    37  36  93 NW14G21   29.74R FOG     WCI  29
DES MOINES     CLOUDY    38  35  89 N9        29.76R WCI  31
GRINNELL*      CLOUDY    37  36  95 NW9       29.74R FOG     WCI  30
KNOXVILLE *    CLOUDY    37  36  93 NW13      29.73R FOG     WCI  29
MARSHALLTOWN   CLOUDY    37  36  96 NW10      29.74R WCI  30
NEWTON *       CLOUDY    37  36  93 NW12      29.74R FOG     WCI  30
PELLA *        CLOUDY    37  35  94 NW12      29.76R FOG     WCI  29
PERRY *        CLOUDY    37  36  94 NW12      29.78R WCI  30
$$

IAZ004>006-015-016-023>025-035-036-230000-
   NORTH CENTRAL IOWA

CITY           SKY/WX    TMP DP  RH WIND       PRES   REMARKS
ALGONA *       CLOUDY    37  37 100 NW6       29.77R WCI  33
CLARION *      CLOUDY    37  37 100 NW8       29.77R FOG     WCI  31
ESTHERVILLE    CLOUDY    35  35 100 NW13      29.76R WCI  26
FORT DODGE *   CLOUDY    37  34  87 NW5       29.78R WCI  34
MASON CITY     CLOUDY    35  33  92 NW9       29.76R FOG     WCI  28
FOREST CITY *  CLOUDY    36  36 100 NW6       29.76R FOG     WCI  31
WEBSTER CITY * CLOUDY    37 N/A N/A NW13      29.75R WCI  29
IOWA FALLS *   CLOUDY    37  36  94 NW13      29.76R WCI  29
$$

IAZ007>011-017>019-026>030-037>042-050>054-066-230000-
   NORTHEAST IOWA

CITY           SKY/WX    TMP DP  RH WIND       PRES   REMARKS
CEDAR RAPIDS   CLOUDY    37  35  92 NW9       29.70R FOG     WCI  30
CHARLES CITY * CLOUDY    34  34 100 NW9       29.74S FOG     WCI  26
CLINTON *      CLOUDY    38  35  89 N9        29.68R WCI  31
DECORAH *      CLOUDY    36  36 100 NW8       29.71R FOG     WCI  29
DUBUQUE        CLOUDY    37  35  92 NW10      29.68S WCI  30
MONTICELLO *   CLOUDY    39  36  87 NW10      29.70R WCI  32
OELWEIN *      CLOUDY    36  34  93 NW12      29.72R FOG     WCI  27
WATERLOO       CLOUDY    36  34  92 NW16      29.73R WCI  26
$$

IAZ064-065-067-068-078-230000-
   EAST CENTRAL IOWA

CITY           SKY/WX    TMP DP  RH WIND       PRES   REMARKS
DAVENPORT      CLOUDY    40  37  89 NW8       29.68R WCI  34
IOWA CITY      CLOUDY    37  32  82 NW8       29.72R WCI  31
MUSCATINE *    CLOUDY    37  36  93 NW12      29.70R WCI  30
QUAD CITIES    CLOUDY    43  35  73 NW6       29.66R
$$

IAZ062-063-075>077-085>089-095>099-230000-
   SOUTHEAST IOWA

CITY           SKY/WX    TMP DP  RH WIND       PRES   REMARKS
BURLINGTON     CLOUDY    37  35  92 NW9       29.68R WCI  30
FAIRFIELD *    CLOUDY    37  34  87 NW13      29.71R WCI  29
FORT MADISON * CLOUDY    37  36  93 NW10      29.69R WCI  30
KEOKUK *       CLOUDY    37 N/A N/A NW13      29.69R WCI  29
OSKALOOSA *    CLOUDY    37  35  91 NW14      29.73R WCI  29
CENTERVILLE *  CLOUDY    36  36 100 NW10      29.74R WCI  28
OTTUMWA        CLOUDY    39  34  82 NW12      29.72R WCI  32
WASHINGTON *   CLOUDY    36  34  93 N12       29.72R WCI  27
$$

ABBREVIATIONS USED IN REMARKS
   TC - TEMPERATURES IN CELSIUS
  WCI - WIND CHILL INDEX
   HX - HEAT INDEX
  VSB - VISIBILITY
$$




USA.gov is the U.S. government's official web portal to all federal, state and local government web resources and services.